Weather History for Jackson, WY

Change the Weather History Date:

Thursday, April 11, 2013

  Actual Average Record
Temperature  
Mean Temperature 39 °F -  
Max Temperature 48 °F 46 °F 68 °F (2012)
Min Temperature 30 °F 21 °F 7 °F (1975)
Degree Days  
Heating Degree Days 26    
Moisture  
Dew Point 29 °F    
Average Humidity 75    
Maximum Humidity 100    
Minimum Humidity 32    
Precipitation  
Precipitation 0.01 in - - ()
Sea Level Pressure  
Sea Level Pressure 29.89 in    
Wind  
Wind Speed 6 mph (NW)    
Max Wind Speed 18 mph    
Max Gust Speed 29 mph    
Visibility 9 miles    
Events      
Averages and records for this station are not official NWS values.
T = Trace of Precipitation, MM = Missing Value Source: NWS Daily Summary

Daily Weather History Graph

Daily Weather History Graph

Search for Another Location

Airport:

Trip Planner

Search our weather history database for the weather conditions in past years. The results will help you decide how hot, cold, wet, or windy it might be!

Date:

Astronomy

Apr. 11, 2013 Rise Set
Actual Time 6:46 AM MDT 8:02 PM MDT
Civil Twilight 6:16 AM MDT 8:31 PM MDT
Nautical Twilight 5:41 AM MDT 9:07 PM MDT
Astronomical Twilight 5:04 AM MDT 9:44 PM MDT
Moon 7:17 AM MDT (4/11) 9:43 PM MDT (4/11)
Length of Visible Light 14h 14m
Length of Day
13h 15m
New Moon, 2% of the Moon is Illuminated
Apr 11
New Moon
Apr 18
First Quarter
Apr 25
Full
May 2
Last Quarter
May 9
New

Hourly Weather History & Observations

Time (MDT) Temp. Windchill Dew Point Humidity Pressure Visibility Wind Dir Wind Speed Gust Speed Precip Events Conditions
3:15 AM 35.6 °F 32.8 °F 33.8 °F 93% 29.84 in 10.0 mi NNE 3.5 mph - N/A   Overcast
3:35 AM 33.8 °F 30.8 °F 32.0 °F 93% 29.84 in 5.0 mi North 3.5 mph - N/A   Overcast
3:55 AM 33.8 °F 27.0 °F 33.8 °F 100% 29.85 in 5.0 mi North 8.1 mph - N/A   Overcast
4:15 AM 33.8 °F 26.4 °F 33.8 °F 100% 29.85 in 5.0 mi North 9.2 mph - N/A   Overcast
4:55 AM 32.0 °F 27.5 °F 30.2 °F 93% 29.84 in 10.0 mi WNW 4.6 mph - 0.01 in   Overcast
5:35 AM 32.0 °F 24.2 °F 32.0 °F 100% 29.86 in 10.0 mi North 9.2 mph - N/A   Mostly Cloudy
5:55 AM 32.0 °F - 32.0 °F 100% 29.86 in 10.0 mi Calm Calm - N/A   Overcast
6:15 AM 33.8 °F - 32.0 °F 93% 29.86 in - Calm Calm - N/A   Unknown
6:35 AM 30.2 °F - 30.2 °F 100% 29.87 in - Calm Calm - N/A   Unknown
6:59 AM 32.0 °F - 32.0 °F 100% 29.87 in 10.0 mi Calm Calm - N/A   Scattered Clouds
7:51 AM 30.2 °F - 30.2 °F 100% 29.89 in 10.0 mi Calm Calm - N/A   Mostly Cloudy
8:51 AM 37.4 °F - 33.8 °F 87% 29.92 in 10.0 mi Calm Calm - N/A   Scattered Clouds
9:51 AM 41.0 °F 39.0 °F 28.4 °F 61% 29.92 in 10.0 mi East 3.5 mph - N/A   Scattered Clouds
10:51 AM 42.8 °F - 26.6 °F 53% 29.92 in 10.0 mi Calm Calm - N/A   Mostly Cloudy
11:56 AM 44.6 °F 42.2 °F 23.0 °F 43% 29.92 in 10.0 mi West 4.6 mph - N/A   Scattered Clouds
12:59 PM 46.4 °F 39.2 °F 21.2 °F 37% 29.90 in 10.0 mi SW 18.4 mph 26.5 mph N/A   Scattered Clouds
1:55 PM 46.4 °F 40.1 °F 19.4 °F 34% 29.89 in 10.0 mi West 15.0 mph 28.8 mph N/A   Scattered Clouds
2:53 PM 48.2 °F - 21.2 °F 34% 29.90 in 10.0 mi West 17.3 mph 23.0 mph N/A   Scattered Clouds
3:51 PM 48.2 °F - 21.2 °F 34% 29.89 in 10.0 mi NW 17.3 mph 23.0 mph N/A   Scattered Clouds
4:54 PM 48.2 °F - 19.4 °F 32% 29.87 in 10.0 mi WNW 12.7 mph 25.3 mph N/A   Scattered Clouds
5:51 PM 46.4 °F 40.4 °F 21.2 °F 37% 29.87 in 10.0 mi WSW 13.8 mph - N/A   Scattered Clouds
6:51 PM 44.6 °F 41.4 °F 19.4 °F 37% 29.88 in 10.0 mi SW 5.8 mph - N/A   Mostly Cloudy
7:55 PM 42.8 °F - 24.8 °F 49% 29.88 in 10.0 mi Calm Calm - N/A   Mostly Cloudy
8:51 PM 37.4 °F 28.2 °F 30.2 °F 75% 29.89 in 10.0 mi North 16.1 mph - N/A   Mostly Cloudy
8:55 PM 37.4 °F 29.3 °F 30.2 °F 75% 29.89 in 10.0 mi North 12.7 mph 18.4 mph N/A   Overcast
9:15 PM 37.4 °F 31.4 °F 32.0 °F 81% 29.90 in 10.0 mi North 8.1 mph - N/A   Overcast
9:35 PM 37.4 °F 32.8 °F 30.2 °F 75% 29.92 in 10.0 mi WNW 5.8 mph - N/A   Overcast
9:55 PM 37.4 °F 33.8 °F 32.0 °F 81% 29.92 in 10.0 mi WNW 4.6 mph - N/A   Overcast
10:15 PM 35.6 °F 29.9 °F 32.0 °F 87% 29.92 in 10.0 mi West 6.9 mph - N/A   Mostly Cloudy
10:35 PM 35.6 °F 28.6 °F 33.8 °F 93% 29.92 in 10.0 mi WNW 9.2 mph - N/A   Overcast
10:55 PM 35.6 °F 31.7 °F 33.8 °F 93% 29.92 in 7.0 mi NNW 4.6 mph - N/A   Overcast
11:15 PM 33.8 °F 27.7 °F 33.8 °F 100% 29.92 in 5.0 mi North 6.9 mph - N/A   Overcast
11:35 PM 33.8 °F 26.4 °F 32.0 °F 93% 29.92 in 9.0 mi North 9.2 mph - N/A   Overcast
11:55 PM 33.8 °F 25.3 °F 32.0 °F 93% 29.92 in 10.0 mi North 11.5 mph - N/A   Overcast